Regional Weather Roundup
Issued by NWS Boston, MA

Current Version | Previous Version | Text Only | Print | Product List | Glossary On
Versions: 1 2 3 4 5 6 7 8 9 10 11 12 13 14 15 16 17 18 19 20 21 22 23 24 25 26 27 28 29 30 31 32 33 34 35 36 37 38 39 40 41 42 43 44 45 46 47 48 49 50
000
ASUS41 KBOX 202310
RWRBOX

REGIONAL WEATHER ROUNDUP
NATIONAL WEATHER SERVICE BOSTON/NORTON MA
700 PM EDT WED MAR 20 2019

NOTE:  "FAIR" INDICATES FEW OR NO CLOUDS BELOW 12,000 FEET WITH NO
SIGNIFICANT WEATHER AND/OR OBSTRUCTIONS TO VISIBILITY.

MAZALL-210000-
EASTERN MASSACHUSETTS

CITY           SKY/WX    TMP DP  RH WIND       PRES   REMARKS
BOSTON         FAIR      46  28  49 S16       30.28R
BEVERLY        FAIR      44  28  53 S10       30.27R
LAWRENCE       FAIR      44  25  47 VRB3      30.27S
BEDFORD        FAIR      46  28  49 S10G18    30.25R
BLUE HILL        N/A     41  26  55 S16G24    30.26R
NORWOOD        FAIR      46  26  45 S14       30.28R
MARSHFIELD     FAIR      43  27  52 SW10G17   30.31R
PLYMOUTH       FAIR      40  27  59 S10G18    30.33R
TAUNTON        FAIR      43  23  45 S8        30.32R
NEW BEDFORD    FAIR      40  31  70 S9        30.33R
$$

MAZALL-210000-
CAPE COD AND THE ISLANDS

CITY           SKY/WX    TMP DP  RH WIND       PRES   REMARKS
FALMOUTH       FAIR      39  28  65 S12       30.34S WCI  32
HYANNIS        FAIR      40  32  73 S13       30.33S
CHATHAM        FAIR      39  28  64 SW9       30.36S
PROVINCETOWN   FAIR      39  30  70 S13       30.33S WCI  31
NANTUCKET      FAIR      38  30  73 S9        30.36F WCI  31
MARTHAS VNYRD  FAIR     N/A N/A N/A S10       30.35S
$$

MAZALL-210000-
CENTRAL AND WESTERN MASSACHUSETTS

CITY           SKY/WX    TMP DP  RH WIND       PRES   REMARKS
WORCESTER      FAIR      42  22  44 S15G23    30.24R
FITCHBURG      FAIR      48  18  30 S6        30.24R
ORANGE         FAIR      48  20  32 S15G23    30.23R
SPRINGFIELD    PTCLDY    46  19  33 S17       30.24R
WESTFIELD      FAIR      47  19  33 S14       30.24R
NORTH ADAMS    FAIR      46  19  34 VRB5      30.20S
PITTSFIELD     FAIR      47  15  27 S9        30.18S
$$

RIZALL-210000-
RHODE ISLAND

CITY           SKY/WX    TMP DP  RH WIND       PRES   REMARKS
PROVIDENCE     MOCLDY    42  27  55 S13       30.32R
NEWPORT        FAIR      40  32  73 S10       30.33R
BLOCK ISLAND   FAIR      41  32  70 S12       30.35S
SMITHFIELD     FAIR      42  24  49 SW7       30.29R
WESTERLY       FAIR      43  35  73 S10       30.34R
$$

CTZALL-210000-
CONNECTICUT

CITY           SKY/WX    TMP DP  RH WIND       PRES   REMARKS
BRADLEY INTL   FAIR      47  18  31 S18G26    30.27R
HARTFORD       FAIR      46  19  34 S14G20    30.29R
BRIDGEPORT     FAIR      45  28  51 S9        30.31S
DANBURY        FAIR      44  17  33 S9        30.28S
GROTON         FAIR      41  36  82 S14       30.33R
NEW HAVEN      MOCLDY    45  29  53 S10       30.31S
CHESTER        FAIR      43  21  42 S7G13     30.31R
MERIDEN        FAIR      44  21  40 S14       30.30R
WILLIMANTIC    FAIR      44  19  36 S9        30.30R
OXFORD         FAIR      42  20  41 S14       30.28R
$$

MEZ002-015-021-024-NHZ003-005-008-011-012-014-VTZ005-008-210000-
NORTHERN NEW ENGLAND

CITY           SKY/WX    TMP DP  RH WIND       PRES   REMARKS
PORTLAND ME    FAIR      38  29  70 S7        30.29S
BANGOR ME      FAIR      36  26  67 S12       30.27S WCI  28
CONCORD NH     FAIR      44  21  40 SE8       30.23R
MANCHESTER NH  FAIR      47  19  33 SE10      30.22R
NASHUA NH      FAIR      44  24  45 SE8       30.24R
PORTSMOUTH NH  CLEAR     38  28  67 E8        30.25F
JAFFREY NH     FAIR      43  21  41 S6        30.21R
KEENE NH       FAIR      43  21  41 S6        30.21S
BURLINGTON VT  FAIR      47  19  33 S13       30.15F
MT. WASHINGTON PTCLDY    16  10  79 SW17        N/A  WCI   0
$$

NYZ052-076-210000-
EASTERN NEW YORK

CITY           SKY/WX    TMP DP  RH WIND       PRES   REMARKS
ALBANY         FAIR      52  16  24 S13       30.19S
NEW YORK CITY  MOCLDY    46  29  51 S16       30.29S
$$

ANZALL-210000-
MARINE OBSERVATIONS

STATION/POSITION TIME  TEMP    WIND        PRES    VSBY  WAVE
                       AIR SEA DIR/SP/G                  HT/PER
                 (UTC) (F)     (DEG/KT/KT) (MB)    (MI)  (FT/S)
BOSTON BUOY      2250   42 39  180/ 19/ 21 1025.2R         2/ 4
BUZZARDS BAY     2200          190/ 19/ 20 1028.4F
NANTUCKET SOUND  2250   39 38  200/ 16/ 17 1027.7F         1/ 3
MASS BAY-STELLWA 2204   41 39  180/ 17/ 21 1024.4F  1 7/8  3/ 4
ISLE OF SHOALS   2200   40     140/ 22/ 25 1024.3F
S OF BLOCK IS    2230      42                N/A           2/ 3
$$

......................KEY.........................
  SKY/WX - SKY CONDITION/PRESENT WEATHER
  TMP    - TEMPERATURE IN FAHRENHEIT
  DWPT   - DEWPOINT IN FAHRENHEIT
  RH     - RELATIVE HUMIDITY IN PERCENT
  WIND   - DIRECTION AND SPEED IN MPH
  PRES   - MEAN SEA LEVEL PRESSURE IN INCHES OF HG
  WCI    - WIND CHILL INDEX
  VSB    - VISIBILITY IN MILES
  HX     - HEAT INDEX
  TC     - TEMPERATURE IN CELSIUS
  VRB    - VARIABLE WIND DIRECTION
  N/A    - NOT AVAILABLE



USA.gov is the U.S. government's official web portal to all federal, state and local government web resources and services.